Weather History for ENSB - May, 2013

Change the Weather History Date:

Monday, May 6, 2013

  Actual Average Record
Temperature  
Mean Temperature 20 °F -  
Max Temperature 24 °F 30 °F 48 °F (2006)
Min Temperature 17 °F 25 °F 6 °F (1999)
Degree Days  
Heating Degree Days 44    
Moisture  
Dew Point 11 °F    
Average Humidity 63    
Maximum Humidity 68    
Minimum Humidity 53    
Precipitation  
Precipitation 0.00 in 0.01 in - ()
Sea Level Pressure  
Sea Level Pressure 29.90 in    
Wind  
Wind Speed 13 mph ()    
Max Wind Speed 18 mph    
Max Gust Speed -    
Visibility 6.2 miles    
Events      
Averages and records for this station are not official NWS values.
T = Trace of Precipitation, MM = Missing Value Source: Averaged Metar Reports

Daily Weather History Graph

Daily Weather History Graph

Search for Another Location

Airport or City:

Trip Planner

Search our weather history database for the weather conditions in past years. The results will help you decide how hot, cold, wet, or windy it might be!

Date:

Astronomy

Jan. 01, 1970 Rise Set
Actual Time Sun does not rise Sun does not rise
Civil Twilight Sun does not rise Sun does not rise
Nautical Twilight Sun does not rise Sun does not rise
Astronomical Twilight Sun does not rise Sun does not rise
Moon 2:48 AM CEST (5/6) 6:30 PM CEST (5/6)
Length of Visible Light 24h 00m
Length of Day
24h 00m
Waning Crescent, 13% of the Moon is Illuminated
May 6
Waning Crescent
May 10
New
May 18
First Quarter
May 25
Full
May 31
Last Quarter

Hourly Weather History & Observations

Time (CEST) Temp. Windchill Dew Point Humidity Pressure Visibility Wind Dir Wind Speed Gust Speed Precip Events Conditions
12:50 AM 21.2 °F 6.4 °F 12.2 °F 68% 29.98 in 6.2 mi SE 18.4 mph - N/A   Scattered Clouds
2:00 AM 22 °F - 14 °F 59% 30.00 in 37 mi SE 17.9 mph - -   Partly Cloudy
2:00 AM 21.2 °F 7.3 °F 12.2 °F 68% 29.98 in 6.2 mi SE 16.1 mph - N/A   Scattered Clouds
2:50 AM 21.2 °F 7.8 °F 12.2 °F 68% 29.98 in 6.2 mi ESE 15.0 mph - N/A   Scattered Clouds
3:50 AM 21.2 °F 7.3 °F 12.2 °F 68% 29.98 in 6.2 mi SE 16.1 mph - N/A   Scattered Clouds
4:50 AM 21.2 °F 8.3 °F 12.2 °F 68% 29.95 in 6.2 mi SE 13.8 mph - N/A   Partly Cloudy
5:50 AM 21.2 °F 7.8 °F 12.2 °F 68% 29.95 in 6.2 mi SE 15.0 mph - N/A   Partly Cloudy
6:50 AM 23.0 °F 10.6 °F 14.0 °F 68% 29.95 in 6.2 mi SE 13.8 mph - N/A   Scattered Clouds
7:50 AM 23.0 °F 10.1 °F 14.0 °F 68% 29.92 in 6.2 mi SE 15.0 mph - N/A   Partly Cloudy
8:00 AM 23 °F - 15 °F 59% 29.95 in 40 mi ESE 15.7 mph - -   Partly Cloudy
9:13 AM 23.0 °F 11.1 °F 12.2 °F 63% 29.92 in 6.2 mi SE 12.7 mph - N/A   Scattered Clouds
9:50 AM 23.0 °F 10.6 °F 12.2 °F 63% 29.92 in 6.2 mi SE 13.8 mph - N/A   Scattered Clouds
10:50 AM 23.0 °F 12.4 °F 12.2 °F 63% 29.92 in 6.2 mi SE 10.4 mph - N/A   Partly Cloudy
11:50 AM 23.0 °F 12.4 °F 14.0 °F 68% 29.92 in 6.2 mi SSE 10.4 mph - N/A   Partly Cloudy
12:50 PM 23.0 °F 11.7 °F 12.2 °F 63% 29.92 in 6.2 mi South 11.5 mph - N/A   Partly Cloudy
1:50 PM 23.0 °F 10.6 °F 12.2 °F 63% 29.89 in 6.2 mi South 13.8 mph - N/A   Partly Cloudy
2:00 PM 23 °F - 14 °F 56% 29.91 in 47 mi SSE 13.4 mph - -   Partly Cloudy
2:50 PM 23.0 °F 12.4 °F 12.2 °F 63% 29.89 in 6.2 mi SE 10.4 mph - N/A   Partly Cloudy
3:50 PM 21.2 °F 8.3 °F 10.4 °F 63% 29.89 in 6.2 mi ESE 13.8 mph - N/A   Partly Cloudy
4:50 PM 21.2 °F 7.8 °F 10.4 °F 63% 29.86 in 6.2 mi ESE 15.0 mph - N/A   Partly Cloudy
5:50 PM 21.2 °F 7.8 °F 10.4 °F 63% 29.86 in 6.2 mi SE 15.0 mph - N/A   Partly Cloudy
6:50 PM 21.2 °F 10.1 °F 8.6 °F 58% 29.83 in 6.2 mi SE 10.4 mph - N/A   Partly Cloudy
7:50 PM 19.4 °F 5.5 °F 8.6 °F 63% 29.83 in 6.2 mi ESE 15.0 mph - N/A   Partly Cloudy
8:00 PM 20 °F - 10 °F 53% 29.85 in 47 mi ESE 15.7 mph - -   Partly Cloudy
8:50 PM 19.4 °F 5.5 °F 8.6 °F 63% 29.83 in 6.2 mi ESE 15.0 mph - N/A   Partly Cloudy
9:50 PM 19.4 °F 5.0 °F 8.6 °F 63% 29.80 in 6.2 mi SSE 16.1 mph - N/A   Partly Cloudy
10:50 PM 17.6 °F 2.7 °F 6.8 °F 63% 29.80 in 6.2 mi SSE 16.1 mph - N/A   Partly Cloudy
11:50 PM 17.6 °F 2.7 °F 5.0 °F 58% 29.77 in 6.2 mi SE 16.1 mph - N/A   Partly Cloudy